Grand Junction, CO

9:25 AM MST on November 18, 2019 (GMT -0700)
Walker

Weather History for KGJT - September, 2019

Change the Weather History Date:

Monday, September 30, 2019

  Actual Average Record
Temperature  
Mean Temperature 66 °F 60 °F  
Max Temperature 74 °F 74 °F 88 °F (1957)
Min Temperature 57 °F 46 °F 32 °F (1985)
Degree Days  
Heating Degree Days 0 6  
Month to date heating degree days 30 71  
Since 1 July heating degree days 30 74  
Cooling Degree Days 1 1  
Month to date cooling degree days 167 103  
Year to date cooling degree days 1288 1122  
Growing Degree Days 12 (Base 50)    
Moisture  
Dew Point 26 °F    
Average Humidity 24    
Maximum Humidity 29    
Minimum Humidity 19    
Precipitation  
Precipitation 0.00 in 0.04 in 0.83 in (1893)
Month to date precipitation 0.26 1.19  
Year to date precipitation 7.12 7.04  
Snow  
Snow 0.00 in 0.00 in 0.00 in (2017)
Month to date snowfall 0.0 0.0  
Since 1 July snowfall 0.0 0.0  
Since 1 September snowfall 0.0 0.0  
Snow Depth 0.00 in    
Sea Level Pressure  
Sea Level Pressure 29.64 in    
Wind  
Wind Speed 14 mph (NW)    
Max Wind Speed 32 mph    
Max Gust Speed 43 mph    
Visibility 10 miles    
Events      
T = Trace of Precipitation, MM = Missing Value Source: NWS Daily Summary

Daily Weather History Graph

Daily Weather History Graph

Search for Another Location

Airport or City:

Astronomy

Sep. 30, 2019 Rise Set
Actual Time 7:09 AM MDT 6:58 PM MDT
Civil Twilight 6:42 AM MDT 7:25 PM MDT
Nautical Twilight 6:11 AM MDT 7:56 PM MDT
Astronomical Twilight 5:40 AM MDT 8:27 PM MDT
Moon 9:16 AM MDT (9/30) 8:37 PM MDT (9/30)
Length of Visible Light 12h 42m
Length of Day
11h 49m
Waxing Crescent, 6% of the Moon is Illuminated
Sep 30
Waxing Crescent
Oct 5
First Quarter
Oct 13
Full
Oct 21
Last Quarter
Oct 27
New

Hourly Weather History & Observations

Time (MDT) Temp. Dew Point Humidity Pressure Visibility Wind Dir Wind Speed Gust Speed Precip Events Conditions
12:53 AM 69.1 °F 28.0 °F 22% 29.53 in 10.0 mi South 27.6 mph 44.9 mph N/A   Clear
1:53 AM 66.9 °F 33.1 °F 28% 29.56 in 10.0 mi SSW 23.0 mph 33.4 mph N/A   Clear
2:53 AM 66.0 °F 34.0 °F 30% 29.57 in 10.0 mi SSW 12.7 mph 21.9 mph N/A   Clear
3:53 AM 57.9 °F 24.1 °F 27% 29.61 in 10.0 mi WNW 9.2 mph - N/A   Clear
4:53 AM 57.9 °F 23.0 °F 26% 29.64 in 10.0 mi NNW 8.1 mph - N/A   Overcast
5:53 AM 57.9 °F 21.9 °F 25% 29.65 in 10.0 mi North 12.7 mph - N/A   Mostly Cloudy
6:53 AM 57.9 °F 23.0 °F 26% 29.67 in 10.0 mi NNW 10.4 mph - N/A   Mostly Cloudy
7:53 AM 57.9 °F 24.1 °F 27% 29.69 in 10.0 mi NNW 6.9 mph - N/A   Overcast
8:53 AM 60.1 °F 25.0 °F 26% 29.71 in 10.0 mi NW 9.2 mph - N/A   Overcast
9:53 AM 61.0 °F 26.1 °F 26% 29.73 in 10.0 mi NNW 9.2 mph - N/A   Overcast
10:53 AM 63.0 °F 26.1 °F 25% 29.72 in 10.0 mi NNW 13.8 mph - N/A   Mostly Cloudy
11:53 AM 64.9 °F 27.0 °F 24% 29.71 in 10.0 mi NW 15.0 mph - N/A   Mostly Cloudy
12:53 PM 69.1 °F 28.9 °F 22% 29.68 in 10.0 mi NW 16.1 mph 25.3 mph N/A   Partly Cloudy
1:53 PM 69.1 °F 30.0 °F 23% 29.66 in 10.0 mi NW 17.3 mph 24.2 mph N/A   Clear
2:53 PM 71.1 °F 30.0 °F 22% 29.64 in 10.0 mi WNW 12.7 mph 24.2 mph N/A   Clear
3:53 PM 73.0 °F 28.9 °F 20% 29.63 in 10.0 mi WNW 16.1 mph - N/A   Clear
4:53 PM 73.0 °F 28.9 °F 20% 29.61 in 10.0 mi NNW 13.8 mph - N/A   Clear
5:53 PM 72.0 °F 28.0 °F 20% 29.60 in 10.0 mi NW 16.1 mph - N/A   Clear
6:53 PM 68.0 °F 26.1 °F 21% 29.60 in 10.0 mi NNW 8.1 mph - N/A   Clear
7:53 PM 64.9 °F 25.0 °F 22% 29.62 in 10.0 mi North 6.9 mph - N/A   Clear
8:53 PM 57.0 °F 23.0 °F 27% 29.65 in 10.0 mi Variable 4.6 mph - N/A   Clear
9:53 PM 57.9 °F 19.9 °F 23% 29.64 in 10.0 mi ESE 3.5 mph - N/A   Clear
10:53 PM 51.1 °F 21.0 °F 31% 29.65 in 10.0 mi ESE 4.6 mph - N/A   Clear
11:53 PM 53.1 °F 25.0 °F 34% 29.64 in 10.0 mi ENE 5.8 mph - 0.00 in   Clear